GW6508 Weather Reports


Display with metric or nautical units.
time (UTC)temp
F
wind
direction
speed
MPH
gust
MPH
rain 1hr
in
rain 24hr
in
rain mn
in
humidity
%
barometer
mb
20260508034920 50 24 2.0 3.0 0.00 0.01 0.00 76 1011.3
20260508033937 50 26 2.0 3.0 0.00 0.01 0.00 76 1011.3
20260508032915 50 27 2.0 3.0 0.00 0.01 0.00 76 1011.3
20260508031913 51 25 2.0 3.0 0.00 0.01 0.00 76 1011.3
20260508030911 51 25 2.0 3.0 0.00 0.01 0.00 76 1011.2
20260508025930 51 25 2.0 3.0 0.00 0.01 0.00 76 1011.3
20260508024907 51 26 2.0 4.0 0.00 0.01 0.00 76 1011.1
20260508023905 51 24 2.0 4.0 0.00 0.01 0.00 76 1011.2
20260508022904 51 24 2.0 3.0 0.00 0.01 0.00 76 1011.2
20260508021902 51 25 2.0 4.0 0.00 0.01 0.00 76 1011.2
20260508020900 51 22 2.0 3.0 0.00 0.01 0.00 76 1011.4
20260508015857 51 15 2.0 2.0 0.00 0.01 0.00 76 1011.5
20260508014856 51 18 2.0 3.0 0.00 0.01 0.00 76 1011.6
20260508013853 52 14 1.0 2.0 0.00 0.01 0.00 75 1011.7
20260508012851 52 18 1.0 2.0 0.00 0.01 0.00 75 1011.9
20260508011849 52 16 1.0 2.0 0.00 0.01 0.00 74 1011.9
20260508010907 53 14 1.0 2.0 0.00 0.01 0.00 74 1012.2
20260508005845 53 17 1.0 2.0 0.00 0.01 0.00 74 1012.1
20260508004844 53 17 1.0 2.0 0.00 0.01 0.00 74 1012.5
20260508003842 54 17 2.0 2.0 0.00 0.01 0.00 73 1012.5
20260508002843 54 22 2.0 2.0 0.00 0.01 0.00 73 1012.4
20260508001840 54 16 1.0 2.0 0.00 0.01 0.00 73 1012.6
20260508000837 54 16 1.0 2.0 0.00 0.01 0.00 73 1012.7
20260507235853 54 19 2.0 2.0 0.00 0.01 0.00 73 1012.7
20260507234832 54 17 1.0 4.0 0.00 0.01 0.00 72 1012.7
20260507233831 55 18 2.0 2.0 0.00 0.01 0.00 72 1012.7
20260507232827 55 18 1.0 2.0 0.00 0.01 0.00 72 1012.9
20260507231826 55 19 2.0 3.0 0.00 0.01 0.00 72 1012.8
20260507230823 55 21 1.0 2.0 0.00 0.01 0.00 72 1012.8
20260507225841 55 19 2.0 2.0 0.00 0.01 0.00 72 1012.8
20260507224819 56 13 1.0 2.0 0.00 0.01 0.00 71 1012.9
20260507223818 56 16 1.0 2.0 0.00 0.01 0.00 71 1012.9
20260507222815 56 26 2.0 3.0 0.00 0.01 0.00 71 1013.1
20260507221814 56 25 2.0 4.0 0.00 0.01 0.00 71 1013.1
20260507220811 56 24 2.0 3.0 0.00 0.01 0.00 71 1013.0
20260507215810 56 24 2.0 3.0 0.00 0.01 0.01 71 1013.1
20260507214807 56 23 2.0 4.0 0.00 0.01 0.01 71 1013.1
20260507213806 56 27 2.0 4.0 0.00 0.01 0.01 71 1013.1
20260507212804 56 24 2.0 3.0 0.00 0.01 0.01 71 1012.9
20260507211802 56 24 2.0 3.0 0.00 0.01 0.01 72 1012.9
20260507210840 56 24 2.0 4.0 0.00 0.01 0.01 72 1012.9
20260507205757 56 25 2.0 3.0 0.00 0.01 0.01 72 1012.6
20260507204756 56 23 2.0 4.0 0.00 0.01 0.01 72 1012.5
20260507203753 56 24 2.0 3.0 0.00 0.01 0.01 71 1012.6
20260507202751 56 20 2.0 3.0 0.00 0.01 0.01 72 1012.6
20260507201750 57 21 2.0 3.0 0.00 0.01 0.01 71 1012.5
20260507200808 57 19 2.0 3.0 0.00 0.01 0.01 71 1012.6
20260507195745 58 19 2.0 4.0 0.00 0.01 0.01 71 1012.6
20260507194744 58 14 2.0 3.0 0.00 0.01 0.01 71 1012.6
20260507193742 59 225 1.0 2.0 0.00 0.01 0.01 70 1012.7
20260507192800 60 348 1.0 4.0 0.00 0.01 0.01 68 1012.6
20260507191737 60 198 1.0 2.0 0.00 0.01 0.01 65 1012.0
20260507190736 61 345 1.0 2.0 0.00 0.01 0.01 65 1011.9
20260507185733 62 225 1.0 2.0 0.00 0.01 0.01 63 1011.9
20260507184731 63 15 2.0 4.0 0.00 0.01 0.01 61 1011.9
20260507183729 64 6 2.0 4.0 0.00 0.01 0.01 60 1011.6
20260507182728 64 7 2.0 4.0 0.00 0.01 0.01 54 1011.5
20260507181725 65 25 2.0 4.0 0.00 0.01 0.01 54 1011.3
20260507180725 65 10 2.0 4.0 0.00 0.01 0.01 53 1011.1
20260507175722 65 8 2.0 4.0 0.00 0.01 0.01 51 1011.1
20260507174739 65 358 2.0 4.0 0.00 0.01 0.01 51 1011.0
20260507173718 65 350 2.0 3.0 0.00 0.01 0.01 51 1011.0
20260507172715 65 334 2.0 4.0 0.00 0.01 0.01 52 1010.9
20260507171713 65 270 2.0 4.0 0.00 0.01 0.01 52 1010.9
20260507170731 65 243 2.0 4.0 0.00 0.01 0.01 54 1011.0
20260507165729 65 339 2.0 3.0 0.00 0.01 0.01 54 1011.0
20260507164727 65 357 2.0 4.0 0.00 0.01 0.01 54 1011.1
20260507163706 65 355 2.0 4.0 0.00 0.01 0.01 53 1011.1
20260507162723 66 298 2.0 4.0 0.00 0.01 0.01 54 1011.0
20260507161701 66 311 2.0 4.0 0.00 0.01 0.01 53 1010.9
20260507160659 67 319 2.0 5.0 0.00 0.01 0.01 52 1011.0
20260507155659 67 198 2.0 5.0 0.00 0.01 0.01 50 1010.9
20260507154655 67 18 2.0 4.0 0.00 0.01 0.01 48 1011.0
20260507153653 67 19 2.0 4.0 0.00 0.01 0.01 48 1010.9
20260507152653 67 10 2.0 4.0 0.00 0.01 0.01 49 1011.0
20260507151710 66 8 2.0 4.0 0.00 0.01 0.01 49 1011.0
20260507150648 66 17 2.0 4.0 0.00 0.01 0.01 49 1010.9
20260507145646 65 15 2.0 4.0 0.00 0.01 0.01 54 1011.0
20260507144644 64 20 2.0 4.0 0.00 0.01 0.01 59 1011.1
20260507143702 63 19 2.0 4.0 0.00 0.01 0.01 61 1011.3
20260507142640 63 19 2.0 4.0 0.01 0.01 0.01 61 1011.4
20260507141637 62 27 2.0 4.0 0.01 0.01 0.01 61 1011.4
20260507140636 62 27 2.0 4.0 0.01 0.01 0.01 60 1011.5
20260507135635 62 22 2.0 4.0 0.01 0.01 0.01 60 1011.8
20260507134633 63 31 2.0 4.0 0.01 0.01 0.01 61 1011.7
20260507133650 64 29 2.0 4.0 0.01 0.01 0.01 61 1011.9
20260507132628 65 20 2.0 6.0 0.00 0.00 0.00 57 1011.8
20260507131626 66 11 2.0 4.0 0.00 0.00 0.00 51 1011.5
20260507130724 67 10 2.0 4.0 0.00 0.00 0.00 54 1011.3
20260507125621 67 14 2.0 3.0 0.00 0.00 0.00 51 1011.0
20260507124620 66 6 2.0 4.0 0.00 0.00 0.00 50 1011.1
20260507123617 66 18 2.0 4.0 0.00 0.00 0.00 50 1011.0
20260507122636 66 16 2.0 4.0 0.00 0.00 0.00 52 1011.2
20260507121613 65 10 2.0 4.0 0.00 0.00 0.00 54 1011.2
20260507120611 65 11 2.0 3.0 0.00 0.00 0.00 55 1011.4
20260507115610 65 20 2.0 4.0 0.00 0.00 0.00 56 1011.6
20260507114608 64 23 2.0 4.0 0.00 0.00 0.00 57 1011.8
20260507113606 64 326 2.0 3.0 0.00 0.00 0.00 58 1011.9
20260507112959 64 338 2.0 2.0 0.00 0.00 0.00 58 1011.8
20260507111957 56 30 2.0 4.0 0.00 0.00 0.00 71 1012.6
20260507092045 56 30 2.0 4.0 0.00 0.00 0.00 72 1012.7
20260507091102 55 25 2.0 4.0 0.00 0.00 0.00 73 1012.5
20260507090041 54 25 2.0 4.0 0.00 0.00 0.00 74 1012.6
20260507085039 54 27 2.0 4.0 0.00 0.00 0.00 75 1012.6
20260507084037 53 27 2.0 4.0 0.00 0.00 0.00 76 1012.6
20260507083034 52 28 2.0 5.0 0.00 0.00 0.00 76 1012.8
20260507082033 51 28 2.0 4.0 0.00 0.00 0.00 77 1012.8
20260507081050 51 23 2.0 4.0 0.00 0.00 0.00 77 1012.7
20260507080049 50 32 2.0 4.0 0.00 0.00 0.00 77 1012.7
20260507075026 50 20 2.0 4.0 0.00 0.00 0.00 77 1012.8
20260507074025 49 30 2.0 4.0 0.00 0.00 0.00 78 1012.8
20260507073023 49 29 2.0 4.0 0.00 0.00 0.00 78 1012.5
20260507072021 48 27 2.0 6.0 0.00 0.00 0.00 79 1012.5
20260507071019 48 29 2.0 4.0 0.00 0.00 0.00 79 1012.7
20260507070016 48 32 2.0 4.0 0.00 0.00 0.00 79 1012.7
20260507065015 48 27 2.0 3.0 0.00 0.00 0.00 79 1012.6
20260507064013 48 28 2.0 4.0 0.00 0.00 0.00 79 1012.6
20260507063011 48 25 2.0 3.0 0.00 0.00 0.00 79 1012.8
20260507062009 48 32 2.0 3.0 0.00 0.00 0.00 79 1012.7
20260507061006 47 25 2.0 4.0 0.00 0.00 0.00 79 1012.8
20260507060004 47 29 2.0 3.0 0.00 0.00 0.00 79 1012.4
20260507055003 47 36 2.0 4.0 0.00 0.00 0.00 79 1012.2
20260507053459 47 23 2.0 3.0 0.00 0.00 0.00 78 1012.4
20260507052458 47 23 2.0 3.0 0.00 0.00 0.00 78 1012.4
20260507051455 48 28 2.0 2.0 0.00 0.00 0.00 78 1012.2
20260507050453 48 26 2.0 3.0 0.00 0.00 0.00 78 1012.1
20260507045532 48 27 2.0 3.0 0.00 0.00 0.00 78 1012.2
20260507044449 48 30 1.0 2.0 0.00 0.00 0.00 78 1012.2
20260507043448 48 19 1.0 2.0 0.00 0.00 0.00 77 1012.4
20260507042445 48 24 1.0 3.0 0.00 0.00 0.00 77 1012.4
20260507041444 48 21 1.0 2.0 0.00 0.00 0.00 77 1012.4
20260507040441 48 19 1.0 2.0 0.00 0.00 0.00 77 1012.2